Location: Jackson Park
(37.2862°N, 79.9123°W)
Time: 11:13:44
(UTC+00:00)

Transit 2A Rocket - Visible Passes

Search period start: 15 May 2026 00:00
Search period end: 25 May 2026 00:00
Orbit: 587 x 895 km, 66.7° (Epoch: 14 May)

Date Brightness Start Highest point End Pass type
(mag) Time Alt. Az. Time Alt. Az. Time Alt. Az.
15 May 7.1 00:53:25 10° WSW 00:58:36 35° NW 01:03:29 10° N visible
15 May 7.9 07:57:28 10° NNE 07:59:36 13° NE 08:01:39 10° ENE visible
15 May 4.5 09:38:01 10° NNW 09:42:26 65° WSW 09:46:39 10° SSE visible
16 May 8.7 01:55:46 10° NW 01:56:02 10° NW 01:56:19 10° NW visible
16 May 5.2 08:52:19 10° NNW 08:56:44 57° ENE 09:00:56 10° SE visible
17 May 8.1 01:06:09 10° W 01:09:50 18° NW 01:13:20 10° N visible
17 May 6.7 08:06:59 10° N 08:10:51 28° NE 08:14:35 10° ESE visible
18 May 7.6 07:22:09 10° N 07:24:49 15° NE 07:27:24 10° E visible
18 May 4.6 09:03:12 10° NW 09:07:30 52° WSW 09:11:37 10° S visible
19 May 4.7 08:17:23 10° NNW 08:21:50 71° ENE 08:26:05 10° SE visible
20 May 6.1 07:31:57 10° N 07:36:01 34° NE 07:39:54 10° ESE visible
20 May 5.8 09:14:55 10° WNW 09:18:01 19° WSW 09:21:03 10° SSW visible
21 May 7.2 06:46:56 10° N 06:50:01 18° NE 06:53:00 10° E visible
21 May 4.8 08:28:24 10° NW 08:32:32 41° WSW 08:34:44 23° SSW visible
22 May 4.4 07:42:29 10° NNW 07:46:55 88° ENE 07:48:01 50° SSE visible
23 May 5.6 06:56:56 10° NNW 07:01:09 41° ENE 07:01:59 36° E visible
23 May 6.4 08:40:27 10° WNW 08:41:34 13° W 08:41:34 13° W visible
24 May 6.7 06:11:47 10° N 06:15:12 21° NE 06:16:17 19° ENE visible
24 May 5.9 07:53:38 10° NW 07:55:54 24° WNW 07:55:54 24° WNW visible
